sat.trackr.live / text

‹ back to catalog

STARLINK-31952

NORAD 59867 · 2024-098K

PAYLOAD ACTIVE UNKNOWN

§ Identity

Operator
Country
US
Launch date
2024-05-24
Launch site
AFETR
Launch vehicle
Mass (kg)
RCS (m²)

Purposes: comms

External: N2YO · Heavens-Above · Gunter

§ Orbital elements

Epoch: 2026-09-21T09:15:12.684672Z

Period
94.27 min
Inclination
43.0020°
Eccentricity
0.0001115
Mean motion
15.27578549 rev/d
Perigee alt
482.3 km
Apogee alt
483.8 km
Semi-major
6,861.2 km
B*
3.9808e-5
RAAN
252.9527°
Arg perigee
270.8853°
Mean anomaly
89.1871°
Rev number
13,177

§ Raw data

STARLINK-319521 59867U 24098K   26264.38556348  .00000833  00000+0  39808-4 0  99952 59867  43.0020 252.9527 0001115 270.8853  89.1871 15.27578549131775

JSON: /api/v1/satellites/59867 · /tle

For live sub-satellite position, see the globe view (requires WebGL).

§ Visibility from observer

Set your observer location to see the next 7 days of passes ≥ 10°. The values pass through the URL so the page stays shareable.

No JS? Fill the form by hand. The geolocation button needs JavaScript.